Weather History for Phuket, Thailand

Change the Weather History Date:

Wednesday, January 15, 2014

  Actual Average Record
Temperature  
Mean Temperature 80 °F -  
Max Temperature 87 °F 90 °F 95 °F (1997)
Min Temperature 72 °F 74 °F 71 °F (2015)
Cooling Degree Days 14    
Growing Degree Days 30 (Base 50)    
Moisture  
Dew Point 68 °F    
Average Humidity 65    
Maximum Humidity 78    
Minimum Humidity 49    
Precipitation  
Precipitation 0.00 in 0.05 in - ()
Sea Level Pressure  
Sea Level Pressure 29.93 in    
Wind  
Wind Speed 10 mph ()    
Max Wind Speed 17 mph    
Max Gust Speed -    
Visibility 5.3 miles    
Events      
Averages and records for this station are not official NWS values.
T = Trace of Precipitation, MM = Missing Value Source: Averaged Metar Reports

Daily Weather History Graph

Daily Weather History Graph

Search for Another Location

Airport:

Trip Planner

Search our weather history database for the weather conditions in past years. The results will help you decide how hot, cold, wet, or windy it might be!

Date:

Astronomy

Jan. 15, 2014 Rise Set
Actual Time 6:45 AM ICT 6:27 PM ICT
Civil Twilight 6:22 AM ICT 6:49 PM ICT
Nautical Twilight 5:56 AM ICT 7:15 PM ICT
Astronomical Twilight 5:31 AM ICT 7:41 PM ICT
Moon 5:48 PM ICT (1/15) 5:46 AM ICT (1/15)
Length of Visible Light 12h 26m
Length of Day
11h 42m
Waxing Gibbous, 99% of the Moon is Illuminated
Jan 15
Waxing Gibbous
Jan 16
Full
Jan 24
Last Quarter
Jan 31
New
Feb 7
First Quarter

Hourly Weather History & Observations

Time (ICT) Temp. Heat Index Dew Point Humidity Pressure Visibility Wind Dir Wind Speed Gust Speed Precip Events Conditions
12:00 AM 78.8 °F - 68.0 °F 69% 29.95 in 5.0 mi ENE 13.8 mph - N/A   Mostly Cloudy
12:30 AM 77.0 °F - 68.0 °F 74% 29.95 in 5.0 mi ENE 11.5 mph - N/A   Mostly Cloudy
1:00 AM 78 °F - 70 °F 69% 29.90 in 5 mi East 11.5 mph - -   Mist
1:30 AM 77.0 °F - 68.0 °F 74% 29.95 in 5.0 mi ENE 13.8 mph - N/A   Mostly Cloudy
2:00 AM 77.0 °F - 68.0 °F 74% 29.95 in 5.0 mi East 11.5 mph - N/A   Mostly Cloudy
2:30 AM 77.0 °F - 68.0 °F 74% 29.92 in 5.0 mi East 13.8 mph - N/A   Mostly Cloudy
3:00 AM 77.0 °F - 68.0 °F 74% 29.92 in 5.0 mi ENE 13.8 mph - N/A   Mostly Cloudy
3:30 AM 77.0 °F - 68.0 °F 74% 29.92 in 5.0 mi ENE 10.4 mph - N/A   Mostly Cloudy
4:00 AM 78 °F - 70 °F 71% 29.88 in 5 mi Calm Calm - -   Mist
4:00 AM 77.0 °F - 68.0 °F 74% 29.92 in 5.0 mi East 11.5 mph - N/A   Mostly Cloudy
4:30 AM 77.0 °F - 68.0 °F 74% 29.92 in 5.0 mi ENE 10.4 mph - N/A   Mostly Cloudy
5:00 AM 77.0 °F - 68.0 °F 74% 29.92 in 5.0 mi ENE 11.5 mph - N/A   Mostly Cloudy
5:30 AM 77.0 °F - 68.0 °F 74% 29.92 in 5.0 mi ENE 12.7 mph - N/A   Mostly Cloudy
6:00 AM 75.2 °F - 68.0 °F 78% 29.92 in 5.0 mi ENE 13.8 mph - N/A   Mostly Cloudy
6:30 AM 77.0 °F - 68.0 °F 74% 29.92 in 5.0 mi ENE 11.5 mph - N/A   Mostly Cloudy
7:00 AM 77 °F - 70 °F 73% 29.89 in 6 mi ESE 6.9 mph - -   Scattered Clouds
7:00 AM 77.0 °F - 68.0 °F 74% 29.95 in 6.2 mi East 11.5 mph - N/A   Mostly Cloudy
7:30 AM 77.0 °F - 68.0 °F 74% 29.95 in 6.2 mi ENE 10.4 mph - N/A   Mostly Cloudy
8:00 AM 77.0 °F - 68.0 °F 74% 29.98 in 6.2 mi ENE 9.2 mph - N/A   Mostly Cloudy
8:30 AM 77.0 °F - 68.0 °F 74% 29.98 in 5.0 mi ENE 12.7 mph - N/A   Mostly Cloudy
9:00 AM 80.6 °F 83.2 °F 68.0 °F 65% 29.98 in 5.6 mi ENE 11.5 mph - N/A   Mostly Cloudy
9:30 AM 80.6 °F 83.2 °F 68.0 °F 65% 29.98 in 5.6 mi ENE 13.8 mph - N/A   Mostly Cloudy
10:00 AM 82 °F - 70 °F 59% 29.94 in 5 mi East 11.5 mph - -   Mist
10:00 AM 82.4 °F 85.4 °F 68.0 °F 62% 29.98 in 5.6 mi ENE 13.8 mph - N/A   Mostly Cloudy
10:30 AM 82.4 °F 85.4 °F 68.0 °F 62% 29.98 in 5.6 mi East 16.1 mph - N/A   Scattered Clouds
11:00 AM 84.2 °F 86.6 °F 66.2 °F 55% 29.98 in 5.6 mi ENE 15.0 mph - N/A   Scattered Clouds
11:30 AM 86.0 °F 89.4 °F 68.0 °F 55% 29.98 in 6.2 mi ENE 17.3 mph - N/A   Scattered Clouds
12:00 PM 84.2 °F 87.3 °F 68.0 °F 58% 29.95 in 6.2 mi ENE 17.3 mph - N/A   Scattered Clouds
12:30 PM 84.2 °F 87.3 °F 68.0 °F 58% 29.95 in 6.2 mi ENE 15.0 mph - N/A   Scattered Clouds
1:00 PM 86 °F - 70 °F 49% 29.91 in 6 mi East 11.5 mph - -   Haze
1:00 PM 86.0 °F 89.4 °F 68.0 °F 55% 29.92 in 6.2 mi East 13.8 mph - N/A   Scattered Clouds
1:30 PM 86.0 °F 89.4 °F 68.0 °F 55% 29.92 in 6.2 mi East 10.4 mph - N/A   Scattered Clouds
2:00 PM 86.0 °F 89.4 °F 68.0 °F 55% 29.92 in 6.2 mi East 11.5 mph - N/A   Scattered Clouds
2:30 PM 86.0 °F 89.4 °F 68.0 °F 55% 29.89 in 6.2 mi ENE 11.5 mph - N/A   Scattered Clouds
3:00 PM 84.2 °F 87.3 °F 68.0 °F 58% 29.89 in 6.2 mi East 9.2 mph - N/A   Mostly Cloudy
3:30 PM 86.0 °F 89.4 °F 68.0 °F 55% 29.89 in 5.6 mi East 8.1 mph - N/A   Mostly Cloudy
4:00 PM 87 °F - 71 °F 50% 29.84 in 5 mi ENE 4.6 mph - -   Haze
4:00 PM 84.2 °F 87.3 °F 68.0 °F 58% 29.89 in 5.0 mi East 9.2 mph - N/A   Mostly Cloudy
4:30 PM 84.2 °F 87.3 °F 68.0 °F 58% 29.86 in 5.0 mi East 8.1 mph - N/A   Mostly Cloudy
5:00 PM 84.2 °F 87.3 °F 68.0 °F 58% 29.89 in 5.0 mi NNE 5.8 mph - N/A   Mostly Cloudy
5:30 PM 84.2 °F 87.3 °F 68.0 °F 58% 29.89 in 4.3 mi NE 5.8 mph - N/A   Mostly Cloudy
6:00 PM 84.2 °F 87.3 °F 68.0 °F 58% 29.89 in 4.3 mi NNE 4.6 mph - N/A   Mostly Cloudy
6:30 PM 82.4 °F 85.4 °F 68.0 °F 62% 29.92 in 4.3 mi NNE 3.5 mph - N/A   Mostly Cloudy
7:00 PM 83 °F - 70 °F 57% 29.87 in 4 mi Calm Calm - -   Haze
7:00 PM 82.4 °F 85.4 °F 68.0 °F 62% 29.92 in 4.3 mi NE 3.5 mph - N/A   Mostly Cloudy
7:30 PM 82.4 °F 85.4 °F 68.0 °F 62% 29.92 in 5.0 mi NNE 5.8 mph - N/A   Mostly Cloudy
8:00 PM 80.6 °F 83.2 °F 68.0 °F 65% 29.92 in 5.0 mi NE 4.6 mph - N/A   Mostly Cloudy
8:30 PM 80.6 °F 83.2 °F 68.0 °F 65% 29.92 in 5.0 mi Variable 3.5 mph - N/A   Mostly Cloudy
9:00 PM 80.6 °F 83.2 °F 68.0 °F 65% 29.95 in 5.0 mi NE 4.6 mph - N/A   Mostly Cloudy
9:30 PM 78.8 °F - 68.0 °F 69% 29.95 in 5.0 mi NE 10.4 mph - N/A   Mostly Cloudy
10:00 PM 80 °F - 71 °F 68% 29.94 in 5 mi NE 2.3 mph - -   Mist
10:00 PM 78.8 °F - 68.0 °F 69% 29.95 in 5.0 mi ENE 6.9 mph - N/A   Mostly Cloudy
10:30 PM 78.8 °F - 68.0 °F 69% 29.95 in 5.0 mi ENE 8.1 mph - N/A   Mostly Cloudy
11:00 PM 78.8 °F - 68.0 °F 69% 29.95 in 5.0 mi ENE 6.9 mph - N/A   Mostly Cloudy
11:30 PM 78.8 °F - 68.0 °F 69% 29.95 in 5.0 mi ENE 8.1 mph - N/A   Mostly Cloudy